TimeCST,TemperatureF,Dew PointF,Humidity,Sea Level PressureIn,VisibilityMPH,Wind Direction,Wind SpeedMPH,Gust SpeedMPH,PrecipitationIn,Events,Conditions,WindDirDegrees,DateUTC
12:28 AM,50.0,50.0,100,29.92,3.0,SE,9.2,-,0.15,Rain,Rain,140,2011-11-22 06:28:00
12:40 AM,50.0,50.0,100,29.92,4.0,SE,11.5,-,0.21,Rain,Heavy Rain,130,2011-11-22 06:40:00
12:49 AM,50.0,50.0,100,29.88,1.8,ESE,18.4,-,0.25,Rain,Heavy Rain,120,2011-11-22 06:49:00
12:53 AM,50.0,50.0,100,29.86,1.0,ESE,17.3,-,0.27,Rain,Heavy Rain,120,2011-11-22 06:53:00
12:59 AM,50.0,50.0,100,29.83,0.5,ESE,19.6,26.5,0.02,Fog-Rain,Heavy Rain,120,2011-11-22 06:59:00
1:07 AM,51.8,51.8,100,29.82,1.0,ESE,13.8,26.5,0.03,Rain,Light Rain,120,2011-11-22 07:07:00
1:15 AM,51.8,51.8,100,29.84,3.0,SSE,8.1,19.6,0.03,Rain,Light Rain,160,2011-11-22 07:15:00
1:53 AM,51.8,51.8,100,29.86,10.0,West,4.6,-,N/A,,Overcast,270,2011-11-22 07:53:00
2:51 AM,51.8,51.8,100,29.87,2.5,West,3.5,-,N/A,,Overcast,280,2011-11-22 08:51:00
2:53 AM,51.1,51.1,100,29.86,2.5,Calm,Calm,-,N/A,,Overcast,0,2011-11-22 08:53:00
3:05 AM,51.8,51.8,100,29.85,1.0,Calm,Calm,-,N/A,,Mist,0,2011-11-22 09:05:00
3:15 AM,51.8,51.8,100,29.84,0.8,Calm,Calm,-,N/A,,Mist,0,2011-11-22 09:15:00
3:31 AM,51.8,51.8,100,29.84,0.5,NW,4.6,-,N/A,Fog,Fog,320,2011-11-22 09:31:00
3:44 AM,51.8,51.8,100,29.82,0.2,NNW,4.6,-,N/A,Fog,Fog,340,2011-11-22 09:44:00
3:53 AM,51.1,51.1,100,29.81,0.2,NW,4.6,-,N/A,Fog,Fog,320,2011-11-22 09:53:00
4:40 AM,51.8,51.8,100,29.82,0.5,NW,3.5,-,N/A,Fog,Fog,310,2011-11-22 10:40:00
4:53 AM,51.1,51.1,100,29.81,0.5,NW,4.6,-,N/A,Fog,Fog,310,2011-11-22 10:53:00
5:06 AM,51.8,51.8,100,29.83,0.8,WNW,5.8,-,N/A,,Mist,290,2011-11-22 11:06:00
5:19 AM,50.0,50.0,100,29.85,1.5,West,5.8,-,0.01,,Overcast,280,2011-11-22 11:19:00
5:53 AM,50.0,50.0,100,29.85,2.5,WNW,10.4,-,0.02,Rain,Light Rain,300,2011-11-22 11:53:00
6:00 AM,50.0,50.0,100,29.85,3.0,WNW,6.9,-,N/A,Rain,Light Rain,300,2011-11-22 12:00:00
6:06 AM,50.0,50.0,100,29.85,5.0,WNW,6.9,-,0.01,Rain,Light Rain,300,2011-11-22 12:06:00
6:17 AM,50.0,50.0,100,29.86,3.0,WNW,9.2,-,0.01,Rain,Light Rain,300,2011-11-22 12:17:00
6:46 AM,48.2,48.2,100,29.87,9.0,WNW,12.7,19.6,0.02,,Overcast,290,2011-11-22 12:46:00
6:53 AM,48.9,48.0,97,29.88,9.0,West,10.4,19.6,0.02,,Overcast,280,2011-11-22 12:53:00
7:41 AM,46.4,46.4,100,29.90,2.5,West,12.7,21.9,N/A,,Overcast,280,2011-11-22 13:41:00
7:50 AM,46.4,44.6,93,29.91,4.0,WNW,11.5,-,N/A,,Overcast,290,2011-11-22 13:50:00
7:53 AM,46.0,45.0,96,29.91,5.0,West,8.1,18.4,N/A,,Overcast,280,2011-11-22 13:53:00
8:53 AM,45.0,44.1,97,29.94,3.0,WNW,11.5,-,N/A,,Overcast,290,2011-11-22 14:53:00
9:53 AM,46.0,44.1,93,29.94,4.0,West,11.5,18.4,N/A,,Overcast,280,2011-11-22 15:53:00
10:53 AM,48.0,46.0,93,29.94,7.0,WNW,10.4,-,N/A,,Overcast,300,2011-11-22 16:53:00
11:53 AM,48.0,46.0,93,29.95,10.0,WNW,12.7,18.4,N/A,,Overcast,290,2011-11-22 17:53:00
12:53 PM,48.9,46.0,90,29.95,10.0,WNW,16.1,21.9,N/A,,Overcast,290,2011-11-22 18:53:00
1:53 PM,48.9,46.0,90,29.95,10.0,WNW,13.8,18.4,N/A,,Overcast,290,2011-11-22 19:53:00
2:53 PM,48.0,45.0,89,29.97,9.0,WNW,12.7,-,N/A,,Overcast,290,2011-11-22 20:53:00
3:48 PM,48.2,44.6,87,30.00,10.0,WNW,9.2,-,N/A,,Overcast,300,2011-11-22 21:48:00
3:53 PM,48.2,44.6,87,30.01,10.0,NW,8.1,-,N/A,,Overcast,310,2011-11-22 21:53:00
4:53 PM,48.0,44.1,86,30.03,8.0,WNW,8.1,-,N/A,,Overcast,290,2011-11-22 22:53:00
5:53 PM,46.9,44.1,90,30.06,10.0,WNW,10.4,-,N/A,,Overcast,300,2011-11-22 23:53:00
6:53 PM,46.4,42.8,87,30.08,8.0,WNW,11.5,-,N/A,,Overcast,300,2011-11-23 00:53:00
7:20 PM,46.4,44.6,93,30.09,6.0,WNW,10.4,-,N/A,,Overcast,300,2011-11-23 01:20:00
7:53 PM,46.0,43.0,89,30.10,7.0,NW,8.1,-,N/A,,Overcast,310,2011-11-23 01:53:00
8:53 PM,46.0,43.0,89,30.14,7.0,WNW,8.1,-,N/A,,Overcast,300,2011-11-23 02:53:00
9:53 PM,45.0,43.0,93,30.15,7.0,WNW,8.1,-,N/A,,Overcast,300,2011-11-23 03:53:00
10:53 PM,45.0,43.0,93,30.17,6.0,WNW,10.4,-,N/A,,Overcast,290,2011-11-23 04:53:00
11:53 PM,45.0,43.0,93,30.18,6.0,WNW,6.9,-,N/A,,Overcast,300,2011-11-23 05:53:00